[[{"header":{"parameterUnit":"m.s-1","parameterCategory":1,"la1":30.2991,"la2":30.254,"lo1":-89.0895,"lo2":-89.0444,"dy":0.0017,"dx":0.0017,"nx":28,"ny":28,"refTime":"2024-08-26T21:00:00:Z","depth":0,"parameterNumber":2,"parameterNumberName":"U-component_of_WINDS"},"data":[0,0,0,0,0,0,0,0,0,0,0,0,0,0,0,0,0,0,0,0,0,0,0,0,0,0,0,0,0,0,0,0,0,0,0,0,0,0,0,0,0,0,0,0,0,0,0,0,0,0,0,0,0,0,0,0,0,0,-2.5429,-2.5428,0,-2.5339,-2.5338,-2.5337,-2.5265,-2.5264,-2.5264,-2.5263,-2.5166,-2.5164,-2.5163,0,0,0,0,0,0,0,0,0,0,0,0,0,-2.5536,-2.5535,-2.5429,-2.5428,-2.5427,-2.5339,-2.5338,-2.5337,-2.5265,-2.5264,-2.5263,-2.5263,-2.5167,-2.5165,-2.5162,0,0,0,0,0,0,0,0,0,0,0,0,0,-2.5472,-2.5534,-2.5429,-2.5381,-2.5375,-2.5339,-2.5338,-2.5336,-2.5265,-2.5264,-2.5263,-2.5262,-2.5168,-2.5165,-2.5162,-2.5166,0,0,-2.5153,-2.5152,0,0,0,0,0,0,0,0,-2.5476,-2.5468,-2.5389,-2.5384,-2.5378,-2.5312,-2.534,-2.5279,-2.5266,-2.5307,-2.5263,-2.5262,-2.5215,-2.5209,-2.5194,-2.5161,-2.5157,-2.5153,-2.5151,-2.515,-2.5149,0,0,0,0,0,0,0,-2.5481,-2.5472,-2.5393,-2.5388,-2.5381,-2.5362,-2.5352,-2.5328,-2.5268,-2.5303,-2.5298,-2.5288,-2.5212,-2.5197,-2.5191,-2.5155,-2.5153,-2.5151,-2.5149,-2.5148,-2.5121,-2.5122,0,0,0,0,0,0,-2.5493,-2.5476,-2.5396,-2.539,-2.5426,-2.5361,-2.535,-2.5334,-2.5268,-2.5257,-2.5289,-2.5285,-2.5202,-2.5194,-2.5187,-2.5186,-2.515,-2.5147,-2.5146,-2.512,-2.5121,-2.5123,0,0,0,0,0,0,-2.5496,-2.5487,-2.54,-2.5432,-2.5419,-2.5361,-2.5344,-2.5333,-2.5317,-2.5258,-2.5246,-2.5285,-2.5201,-2.5191,-2.5172,-2.5182,-2.5146,-2.5144,-2.5119,-2.5121,-2.5122,-2.5185,0,0,0,0,0,0,-2.5499,-2.5488,-2.5489,-2.5432,-2.5418,-2.5387,-2.5344,-2.5332,-2.5313,-2.5307,-2.525,-2.524,-2.5199,-2.5177,-2.5169,-2.5177,-2.5141,-2.5118,-2.512,-2.5122,-2.5182,-2.5189,-2.5195,0,0,0,0,0,-2.5503,-2.551,-2.549,-2.548,-2.5418,-2.5387,-2.5379,-2.5333,-2.5315,-2.5315,-2.5277,-2.5242,-2.5183,-2.5175,-2.5166,-2.5174,-2.5117,-2.5119,-2.5121,-2.5179,-2.5187,-2.5195,0,0,0,0,0,0,-2.5567,-2.5501,-2.5478,-2.5467,-2.5434,-2.5375,-2.5374,-2.5344,-2.5314,-2.5309,-2.5253,-2.5241,-2.5227,-2.5199,-2.5191,-2.5174,-2.5145,-2.5146,-2.5192,-2.52,-2.5206,-2.5212,-2.5139,0,0,0,0,0,-2.558,-2.5562,-2.5505,-2.55,-2.5485,-2.5433,-2.5418,-2.5386,-2.5348,-2.5333,-2.5293,-2.5258,-2.5231,-2.5214,-2.5186,-2.5179,-2.5165,-2.518,-2.5186,-2.5192,-2.5192,-2.5185,-2.5191,-2.513,-2.513,-2.513,0,0,-2.5606,-2.5568,-2.5559,-2.5512,-2.5482,-2.5463,-2.5421,-2.5403,-2.5387,-2.533,-2.5309,-2.5279,-2.5235,-2.5222,-2.5214,-2.5198,-2.5206,-2.5195,-2.5199,-2.5196,-2.5188,-2.5194,-2.5199,-2.5132,-2.5131,-2.5131,0,0,-2.5643,-2.5614,-2.5606,-2.5578,-2.5535,-2.5501,-2.5499,-2.5446,-2.5424,-2.5403,-2.536,-2.5341,-2.5297,-2.5267,-2.5246,-2.5276,-2.5242,-2.5268,-2.53,-2.5294,-2.5299,-2.5303,-2.5312,-2.5316,-2.5269,-2.5269,-2.527,0,-2.5681,-2.5651,-2.5606,-2.559,-2.5571,-2.552,-2.5512,-2.5487,-2.5436,-2.5423,-2.5407,-2.535,-2.5317,-2.5296,-2.5303,-2.5289,-2.5284,-2.5273,-2.5303,-2.5306,-2.5309,-2.5317,-2.5321,-2.5273,-2.5272,-2.5272,-2.5272,0,-2.5699,-2.5679,-2.5679,-2.5633,-2.5613,-2.5601,-2.5553,-2.5539,-2.551,-2.5478,-2.5457,-2.5416,-2.5379,-2.5372,-2.5343,-2.5347,-2.5338,-2.5313,-2.5283,-2.5319,-2.5325,-2.5328,-2.5278,-2.5276,-2.5275,-2.5275,0,0,-2.577,-2.5702,-2.5702,-2.5681,-2.5631,-2.5614,-2.56,-2.5566,-2.5554,-2.5522,-2.5508,-2.5473,-2.545,-2.5426,-2.5394,-2.5389,-2.5414,-2.5364,-2.5362,-2.5373,-2.5415,-2.5432,-2.5436,-2.5393,-2.5393,-2.5394,-2.5418,0,-2.5798,-2.5771,-2.5731,-2.5717,-2.5698,-2.5652,-2.564,-2.5607,-2.5577,-2.5556,-2.5522,-2.5498,-2.547,-2.5455,-2.5449,-2.5412,-2.5421,-2.541,-2.5377,-2.5377,-2.5387,-2.544,-2.5458,-2.5483,-2.542,-2.542,-2.5421,0,-2.5826,-2.5798,-2.5783,-2.5735,-2.5725,-2.5715,-2.5681,-2.5662,-2.5624,-2.5603,-2.5578,-2.5544,-2.5526,-2.5501,-2.5475,-2.5469,-2.5454,-2.5434,-2.5434,-2.5426,-2.5399,-2.5432,-2.5489,-2.5492,-2.5425,-2.5424,-2.5424,0,-2.5878,-2.5836,-2.5822,-2.5805,-2.575,-2.5744,-2.572,-2.5681,-2.5664,-2.5634,-2.5621,-2.559,-2.5572,-2.5548,-2.5505,-2.5491,-2.5484,-2.5455,-2.5464,-2.5465,-2.5462,-2.5462,-2.5515,-2.5456,-2.5456,-2.5456,-2.5456,0,-2.5911,-2.5903,-2.5844,-2.5835,-2.5825,-2.578,-2.577,-2.5742,-2.5709,-2.5693,-2.5651,-2.5636,-2.5582,-2.5561,-2.5528,-2.5511,-2.5504,-2.5485,-2.5476,-2.5487,-2.5489,-2.5474,-2.547,-2.5457,-2.5457,-2.5457,-2.5457,0,-2.5966,-2.5927,-2.5907,-2.5857,-2.5845,-2.5839,-2.5796,-2.5784,-2.5754,-2.5734,-2.5726,-2.5677,-2.565,-2.5606,-2.5567,-2.5544,-2.5533,-2.5519,-2.5546,-2.554,-2.555,-2.5549,-2.5593,-2.5596,-2.5538,-2.5539,-2.5539,0,-2.5989,-2.5982,-2.5932,-2.5919,-2.5897,-2.5877,-2.5859,-2.5815,-2.5798,-2.5756,-2.575,-2.572,-2.5694,-2.5654,-2.5613,-2.5583,-2.5566,-2.5584,-2.5561,-2.5573,-2.5564,-2.5564,-2.5563,-2.5588,-2.5589,-2.559,-2.5591,0,-2.6033,-2.6015,-2.5991,-2.5962,-2.5943,-2.5917,-2.5889,-2.588,-2.583,-2.5813,-2.5786,-2.5766,-2.5727,-2.5697,-2.5662,-2.5636,-2.5604,-2.5599,-2.5599,-2.5609,-2.5624,-2.5614,-2.5558,-2.5597,-2.5596,-2.5596,-2.5596,-2.5595,-2.6071,-2.6063,-2.6027,-2.6002,-2.5977,-2.5953,-2.594,-2.5909,-2.5886,-2.5851,-2.5826,-2.5801,-2.5764,-2.5713,-2.569,-2.5669,-2.5655,-2.5655,-2.5655,-2.5655,-2.5659,-2.563,-2.5662,-2.5662,-2.5662,-2.5662,-2.5662,0,-2.6112,-2.6087,-2.6065,-2.6028,-2.601,-2.5985,-2.5953,-2.5938,-2.5917,-2.5886,-2.5862,-2.5831,-2.5804,-2.5762,-2.5731,-2.5722,-2.5707,-2.5715,-2.5714,-2.5708,-2.5674,-2.5676,-2.5728,-2.5728,-2.5728,-2.5728,-2.5728,-2.5728,-2.613,-2.6115,-2.6092,-2.6064,-2.6039,-2.6015,-2.5999,-2.5976,-2.5951,-2.5919,-2.5896,-2.5871,-2.5835,-2.5802,-2.5775,-2.5763,-2.5753,-2.5766,-2.5749,-2.5717,-2.5711,-2.5705,-2.5707,-2.5764,-2.5764,-2.5785,-2.5785,-2.5786]},{"header":{"parameterUnit":"m.s-1","parameterCategory":1,"la1":30.2991,"la2":30.254,"lo1":-89.0895,"lo2":-89.0444,"dy":0.0017,"dx":0.0017,"nx":28,"ny":28,"refTime":"2024-08-26T21:00:00:Z","depth":0,"parameterNumber":3,"parameterNumberName":"V-component_of_WINDS"},"data":[0,0,0,0,0,0,0,0,0,0,0,0,0,0,0,0,0,0,0,0,0,0,0,0,0,0,0,0,0,0,0,0,0,0,0,0,0,0,0,0,0,0,0,0,0,0,0,0,0,0,0,0,0,0,0,0,0,0,2.8284,2.8285,0,2.8374,2.8375,2.8376,2.8462,2.8463,2.8464,2.8465,2.8555,2.8556,2.8558,0,0,0,0,0,0,0,0,0,0,0,0,0,2.8188,2.8189,2.8284,2.8285,2.8286,2.8374,2.8375,2.8376,2.8461,2.8463,2.8464,2.8465,2.8554,2.8556,2.8558,0,0,0,0,0,0,0,0,0,0,0,0,0,2.8248,2.8189,2.8284,2.834,2.8345,2.8373,2.8375,2.8376,2.8461,2.8463,2.8464,2.8466,2.8554,2.8556,2.8558,2.8538,0,0,2.8564,2.8565,0,0,0,0,0,0,0,0,2.8245,2.8252,2.833,2.8336,2.8342,2.8408,2.8374,2.843,2.8461,2.8417,2.8465,2.8467,2.8505,2.8511,2.8524,2.8542,2.8546,2.8564,2.8566,2.8567,2.8567,0,0,0,0,0,0,0,2.8241,2.8249,2.832,2.8331,2.8339,2.836,2.8371,2.8385,2.845,2.8421,2.8427,2.8437,2.8508,2.8522,2.8527,2.8547,2.8564,2.8566,2.8567,2.8568,2.8555,2.8554,0,0,0,0,0,0,2.8228,2.8244,2.8317,2.8322,2.8297,2.8361,2.8372,2.8385,2.8451,2.8462,2.8435,2.8441,2.8517,2.8524,2.853,2.8512,2.8566,2.8568,2.857,2.8557,2.8555,2.8553,0,0,0,0,0,0,2.8226,2.8234,2.8313,2.8285,2.8297,2.8361,2.8375,2.8386,2.84,2.8462,2.8474,2.8437,2.8519,2.8527,2.8536,2.8516,2.8569,2.8571,2.8559,2.8556,2.8554,2.8475,0,0,0,0,0,0,2.8222,2.8232,2.8225,2.8284,2.8298,2.8317,2.8373,2.8387,2.8403,2.8411,2.8466,2.8477,2.8521,2.8532,2.8538,2.852,2.8573,2.8561,2.8558,2.8555,2.8479,2.847,2.8462,0,0,0,0,0,2.8219,2.8198,2.8224,2.8232,2.829,2.8315,2.8323,2.8375,2.8401,2.8395,2.8435,2.8475,2.8518,2.8532,2.8539,2.8522,2.8562,2.8559,2.8555,2.8483,2.8472,2.8462,0,0,0,0,0,0,2.8133,2.8207,2.8236,2.8234,2.8268,2.833,2.8323,2.8361,2.8387,2.8393,2.8455,2.8467,2.8468,2.8496,2.8511,2.8507,2.8546,2.8543,2.8489,2.8478,2.847,2.8463,2.8575,0,0,0,0,0,2.8114,2.8129,2.8192,2.8184,2.82,2.8258,2.8271,2.8308,2.8345,2.836,2.8401,2.8435,2.8457,2.8469,2.8492,2.8484,2.8498,2.8476,2.8467,2.846,2.8457,2.8456,2.8448,2.8542,2.8542,2.8542,0,0,2.8075,2.8117,2.8122,2.8168,2.8199,2.8213,2.827,2.8281,2.8292,2.8362,2.8372,2.8404,2.8446,2.8447,2.8449,2.847,2.8434,2.8455,2.8449,2.845,2.8452,2.8443,2.8435,2.8539,2.854,2.854,0,0,2.801,2.8043,2.8041,2.8071,2.8117,2.8157,2.8156,2.8213,2.8237,2.8249,2.8302,2.8316,2.8351,2.838,2.8399,2.8349,2.8387,2.8354,2.8308,2.8307,2.83,2.8293,2.8276,2.8269,2.8351,2.8351,2.8351,0,2.7955,2.7978,2.8035,2.8045,2.8064,2.8129,2.8127,2.8154,2.8204,2.8216,2.8239,2.8287,2.832,2.8329,2.8317,2.833,2.8332,2.8348,2.8296,2.8291,2.8286,2.827,2.8263,2.8347,2.8347,2.8348,2.8348,0,2.7909,2.7924,2.7917,2.7966,2.7985,2.7988,2.8046,2.8059,2.8095,2.8132,2.8144,2.8187,2.822,2.8226,2.826,2.824,2.8252,2.8285,2.8325,2.8271,2.8258,2.8252,2.8341,2.8342,2.8344,2.8345,0,0,2.7791,2.7873,2.787,2.7893,2.795,2.7963,2.7971,2.8005,2.8014,2.8048,2.8056,2.8086,2.8117,2.8139,2.8178,2.8177,2.8136,2.8211,2.8213,2.8195,2.8118,2.8093,2.8085,2.8162,2.8161,2.8161,2.8114,0,2.7736,2.7754,2.7806,2.7808,2.7823,2.7887,2.7893,2.7929,2.7965,2.7984,2.8023,2.8043,2.8083,2.8097,2.8099,2.814,2.8121,2.8144,2.8171,2.8171,2.8158,2.8077,2.8051,2.8005,2.8109,2.8108,2.8108,0,2.7674,2.7705,2.7708,2.7766,2.7775,2.778,2.7816,2.7833,2.7876,2.7902,2.7928,2.7972,2.7984,2.8022,2.804,2.8055,2.8069,2.8092,2.8091,2.8095,2.8136,2.8079,2.7991,2.7984,2.81,2.81,2.8101,0,2.7588,2.763,2.7639,2.7657,2.7725,2.7727,2.7756,2.78,2.7818,2.785,2.7862,2.7895,2.7912,2.7937,2.7989,2.8012,2.8002,2.8044,2.8025,2.8023,2.8019,2.8018,2.7932,2.8028,2.8028,2.8028,2.8028,0,2.7521,2.752,2.7601,2.7606,2.7608,2.7669,2.767,2.7704,2.7744,2.7757,2.7813,2.7824,2.7893,2.7912,2.7953,2.7962,2.797,2.7992,2.8003,2.7987,2.7984,2.7996,2.8001,2.8026,2.8027,2.8027,2.8027,0,2.7425,2.7479,2.7492,2.7556,2.7572,2.7571,2.7626,2.7634,2.7674,2.769,2.7697,2.776,2.7786,2.7841,2.7881,2.7909,2.7909,2.7928,2.7894,2.7901,2.7879,2.788,2.7797,2.779,2.789,2.7889,2.7888,0,2.7378,2.738,2.7445,2.7458,2.7485,2.7505,2.7524,2.7585,2.7603,2.7653,2.7654,2.7685,2.7713,2.7752,2.7801,2.7833,2.7853,2.7822,2.7858,2.7843,2.7854,2.7853,2.7854,2.7814,2.7812,2.7811,2.781,0,2.729,2.7318,2.7343,2.7378,2.74,2.743,2.7464,2.7471,2.754,2.7557,2.7585,2.7607,2.7649,2.7679,2.7719,2.7749,2.7791,2.7799,2.7796,2.778,2.776,2.7771,2.7872,2.78,2.7801,2.7802,2.7802,2.7803,2.7218,2.7223,2.727,2.7297,2.7329,2.736,2.7371,2.7413,2.7438,2.7477,2.7512,2.7537,2.7582,2.764,2.7667,2.7688,2.7709,2.7705,2.7704,2.7702,2.7696,2.7757,2.7696,2.7696,2.7696,2.7697,2.7697,0,2.7134,2.7168,2.7192,2.7238,2.726,2.7299,2.7339,2.7354,2.7376,2.7414,2.7441,2.7474,2.7504,2.7557,2.7591,2.7598,2.7619,2.7605,2.7605,2.7612,2.7675,2.7674,2.7588,2.7588,2.7588,2.7588,2.7588,2.7588,2.7092,2.7103,2.7137,2.7165,2.7199,2.7225,2.7244,2.7273,2.7305,2.7339,2.7365,2.7399,2.7444,2.7483,2.7513,2.7528,2.7538,2.7519,2.754,2.7597,2.7607,2.7617,2.7617,2.752,2.752,2.7476,2.7475,2.7475]}]]